Regional Weather Roundup
Issued by NWS

Home | Current Version | Previous Version | Graphics & Text | Print | Product List | Glossary Off
Versions: 1 2 3 4 5 6 7 8 9 10 11 12 13 14 15 16 17 18 19 20 21 22 23 24 25 26 27 28 29 30 31 32 33 34 35 36 37 38 39 40 41 42 43 44 45 46 47 48 49 50

000
ASUS43 KTOP 222259
RWRKS

WEATHER ROUNDUP FOR KANSAS
NATIONAL WEATHER SERVICE GOODLAND KS
500 PM CST SAT NOV 22 2014

NOTE:  "FAIR" INDICATES FEW OR NO CLOUDS BELOW 12,000 FEET WITH NO
SIGNIFICANT WEATHER AND/OR OBSTRUCTIONS TO VISIBILITY.

KSZ001>006-013>018-027>032-041>047-230000-
NORTHWEST KANSAS

CITY           SKY/WX    TMP DP  RH WIND       PRES   REMARKS
GOODLAND       PTCLDY    62  16  16 SW14      29.56R
HAYS           CLEAR     59  37  44 S17       29.61F
HILL CITY      CLEAR     63  29  27 S8        29.57F
RUSSELL        CLEAR     60  49  66 S17       29.61F
$$

KSZ061>065-074>080-084>089-230000-
SOUTHWEST KANSAS

CITY           SKY/WX    TMP DP  RH WIND       PRES   REMARKS
DODGE CITY     CLEAR     60  48  64 SE12      29.63F
ELKHART          N/A    N/A N/A N/A MISG        N/A
GARDEN CITY    CLEAR     62  28  27 SE9       29.58F
GREAT BEND     MOCLDY    55  50  82 S22       29.64F
LIBERAL        CLEAR     66  19  16 S13       29.63F
$$

KSZ066>073-081>083-090>101-230000-
SOUTHEAST KANSAS

CITY           SKY/WX    TMP DP  RH WIND       PRES   REMARKS
CHANUTE        CLOUDY    56  52  86 S14       29.80F
COFFEYVILLE    PTCLDY    56  52  86 S10       29.81F
HUTCHINSON     CLOUDY    59  54  83 S13       29.70F
MEDICINE LODGE   N/A     57  55  93 S14G21    29.70S
NEWTON         CLOUDY    57  50  77 S15       29.74F
PARSONS        CLOUDY    57  53  86 S6        29.81F
WICHITA INTL   MOCLDY    59  53  80 S17       29.72S
WICHITA JABRA  PTCLDY    57  52  83 S16       29.73S
WICHITA MCCONL MOCLDY    57  57 100 SE17      29.73F
WINFIELD       CLOUDY    58  53  84 S17       29.76F
$$

KSZ007>012-019>026-033>040-048>060-102>105-230000-
NORTHEAST KANSAS

CITY           SKY/WX    TMP DP  RH WIND       PRES   REMARKS
CONCORDIA      PTCLDY    57  53  86 S15G23    29.62F
EMPORIA        CLOUDY    57  53  86 S14       29.74F
LAWRENCE       MOCLDY    57  51  80 S13G22    29.77S
MANHATTAN      CLOUDY    61  55  81 S9        29.70S
OLATHE IND     MOCLDY    56  51  84 S15       29.79F
OLATHE EXE     MOCLDY    57  52  83 S10       29.79F
SALINA         CLOUDY    59  54  83 S13G24    29.68S
TOPEKA BILLARD PTCLDY    58  53  84 S13       29.75S
TOPEKA FORBES  PTCLDY    58  52  80 S13       29.74F
$$



USA.gov is the U.S. government's official web portal to all federal, state and local government web resources and services.